Year,Month,Day,Hour,Minute,Value (Times are PST for temperature in C)
2016,04,07,00,00,8.70
2016,04,07,00,01,8.60
2016,04,07,00,02,8.60
2016,04,07,00,03,8.60
2016,04,07,00,04,8.60
2016,04,07,00,05,8.60
2016,04,07,00,06,8.60
2016,04,07,00,07,8.50
2016,04,07,00,08,8.50
2016,04,07,00,09,8.50
2016,04,07,00,10,8.50
2016,04,07,00,11,8.40
2016,04,07,00,12,8.40
2016,04,07,00,13,8.40
2016,04,07,00,17,8.40
2016,04,07,00,18,8.30
2016,04,07,00,19,8.30
2016,04,07,00,20,8.30
2016,04,07,00,21,8.30
2016,04,07,00,22,8.30
2016,04,07,00,23,8.30
2016,04,07,00,24,8.30
2016,04,07,00,25,8.30
2016,04,07,00,26,8.40
2016,04,07,00,27,8.40
2016,04,07,00,28,8.50
2016,04,07,00,29,8.70
2016,04,07,00,30,8.80
2016,04,07,00,31,8.80
2016,04,07,00,32,8.80
2016,04,07,00,33,8.80
2016,04,07,00,34,8.80
2016,04,07,00,35,8.70
2016,04,07,00,36,8.60
2016,04,07,00,37,8.60
2016,04,07,00,38,8.60
2016,04,07,00,39,8.60
2016,04,07,00,40,8.50
2016,04,07,00,41,8.50
2016,04,07,00,42,8.40
2016,04,07,00,43,8.40
2016,04,07,00,44,8.40
2016,04,07,00,45,8.40
2016,04,07,00,46,8.40
2016,04,07,00,47,8.30
2016,04,07,00,48,8.40
2016,04,07,00,49,8.40
2016,04,07,00,50,8.40
2016,04,07,00,51,8.40
2016,04,07,00,52,8.30
2016,04,07,00,53,8.30
2016,04,07,00,54,8.30
2016,04,07,00,55,8.30
2016,04,07,00,56,8.40
2016,04,07,00,57,8.40
2016,04,07,00,58,8.40
2016,04,07,00,59,8.40
2016,04,07,01,00,8.30
2016,04,07,01,01,8.30
2016,04,07,01,02,8.30
2016,04,07,01,03,8.30
2016,04,07,01,04,8.30
2016,04,07,01,05,8.30
2016,04,07,01,06,8.30
2016,04,07,01,07,8.20
2016,04,07,01,08,8.20
2016,04,07,01,09,8.10
2016,04,07,01,10,8.10
2016,04,07,01,11,8.10
2016,04,07,01,12,8.10
2016,04,07,01,13,8.10
2016,04,07,01,14,8.10
2016,04,07,01,15,8.00
2016,04,07,01,16,8.00
2016,04,07,01,17,8.00
2016,04,07,01,18,8.00
2016,04,07,01,19,7.90
2016,04,07,01,20,7.90
2016,04,07,01,21,8.00
2016,04,07,01,22,8.00
2016,04,07,01,23,8.00
2016,04,07,01,24,8.00
2016,04,07,01,25,8.00
2016,04,07,01,26,8.00
2016,04,07,01,27,8.00
2016,04,07,01,28,7.90
2016,04,07,01,29,7.90
2016,04,07,01,30,7.90
2016,04,07,01,31,7.90
2016,04,07,01,32,7.90
2016,04,07,01,33,7.90
2016,04,07,01,34,7.90
2016,04,07,01,35,7.90
2016,04,07,01,36,7.90
2016,04,07,01,37,7.90
2016,04,07,01,38,7.90
2016,04,07,01,39,7.90
2016,04,07,01,40,7.90
2016,04,07,01,41,7.90
2016,04,07,01,42,8.00
2016,04,07,01,43,8.10
2016,04,07,01,44,8.10
2016,04,07,01,45,8.20
2016,04,07,01,46,8.20
2016,04,07,01,47,8.20
2016,04,07,01,48,8.30
2016,04,07,01,49,8.30
2016,04,07,01,50,8.30
2016,04,07,01,51,8.30
2016,04,07,01,52,8.30
2016,04,07,01,53,8.30
2016,04,07,01,54,8.30
2016,04,07,01,55,8.30
2016,04,07,01,56,8.30
2016,04,07,01,57,8.30
2016,04,07,01,58,8.30
2016,04,07,01,59,8.30
2016,04,07,02,00,8.30
2016,04,07,02,01,8.30
2016,04,07,02,02,8.40
2016,04,07,02,03,8.50
2016,04,07,02,04,8.50
2016,04,07,02,05,8.60
2016,04,07,02,06,8.50
2016,04,07,02,07,8.40
2016,04,07,02,08,8.40
2016,04,07,02,09,8.30
2016,04,07,02,10,8.30
2016,04,07,02,11,8.30
2016,04,07,02,12,8.30
2016,04,07,02,13,8.30
2016,04,07,02,14,8.40
2016,04,07,02,15,8.40
2016,04,07,02,16,8.40
2016,04,07,02,17,8.40
2016,04,07,02,18,8.40
2016,04,07,02,19,8.50
2016,04,07,02,20,8.50
2016,04,07,02,21,8.50
2016,04,07,02,22,8.60
2016,04,07,02,23,8.60
2016,04,07,02,24,8.70
2016,04,07,02,25,8.70
2016,04,07,02,26,8.70
2016,04,07,02,27,8.70
2016,04,07,02,28,8.70
2016,04,07,02,29,8.70
2016,04,07,02,30,8.80
2016,04,07,02,31,8.90
2016,04,07,02,32,9.10
2016,04,07,02,33,9.10
2016,04,07,02,34,9.20
2016,04,07,02,35,9.20
2016,04,07,02,36,9.40
2016,04,07,02,37,9.50
2016,04,07,02,38,9.60
2016,04,07,02,39,9.70
2016,04,07,02,40,9.70
2016,04,07,02,41,9.80
2016,04,07,02,42,9.80
2016,04,07,02,43,9.80
2016,04,07,02,44,9.80
2016,04,07,02,45,9.80
2016,04,07,02,46,9.80
2016,04,07,02,47,9.70
2016,04,07,02,48,9.70
2016,04,07,02,49,9.80
2016,04,07,02,50,9.80
2016,04,07,02,51,9.80
2016,04,07,02,52,9.80
2016,04,07,02,53,9.80
2016,04,07,02,54,9.80
2016,04,07,02,55,9.80
2016,04,07,02,56,9.80
2016,04,07,02,57,9.90
2016,04,07,02,58,9.90
2016,04,07,02,59,9.90
2016,04,07,03,00,10.00
2016,04,07,03,01,10.10
2016,04,07,03,02,10.10
2016,04,07,03,03,10.20
2016,04,07,03,04,10.30
2016,04,07,03,05,10.40
2016,04,07,03,06,10.40
2016,04,07,03,07,10.50
2016,04,07,03,08,10.70
2016,04,07,03,09,10.70
2016,04,07,03,10,10.80
2016,04,07,03,11,10.80
2016,04,07,03,12,10.90
2016,04,07,03,13,10.90
2016,04,07,03,14,11.00
2016,04,07,03,15,11.00
2016,04,07,03,16,11.00
2016,04,07,03,17,11.00
2016,04,07,03,18,11.00
2016,04,07,03,19,10.90
2016,04,07,03,20,10.90
2016,04,07,03,21,10.90
2016,04,07,03,22,10.80
2016,04,07,03,23,10.80
2016,04,07,03,24,10.80
2016,04,07,03,25,10.80
2016,04,07,03,26,10.80
2016,04,07,03,27,10.80
2016,04,07,03,28,10.80
2016,04,07,03,29,10.70
2016,04,07,03,30,10.70
2016,04,07,03,31,10.70
2016,04,07,03,32,10.60
2016,04,07,03,33,10.60
2016,04,07,03,34,10.60
2016,04,07,03,35,10.60
2016,04,07,03,36,10.60
2016,04,07,03,37,10.60
2016,04,07,03,38,10.70
2016,04,07,03,39,10.70
2016,04,07,03,40,10.70
2016,04,07,03,41,10.70
2016,04,07,03,42,10.70
2016,04,07,03,43,10.60
2016,04,07,03,44,10.60
2016,04,07,03,45,10.50
2016,04,07,03,46,10.50
2016,04,07,03,47,10.40
2016,04,07,03,48,10.40
2016,04,07,03,49,10.30
2016,04,07,03,50,10.30
2016,04,07,03,51,10.30
2016,04,07,03,52,10.30
2016,04,07,03,53,10.20
2016,04,07,03,54,10.20
2016,04,07,03,55,10.20
2016,04,07,03,56,10.20
2016,04,07,03,57,10.10
2016,04,07,03,58,10.10
2016,04,07,03,59,10.00
2016,04,07,04,00,10.00
2016,04,07,04,01,9.90
2016,04,07,04,02,9.80
2016,04,07,04,03,9.80
2016,04,07,04,04,9.70
2016,04,07,04,05,9.60
2016,04,07,04,06,9.50
2016,04,07,04,07,9.50
2016,04,07,04,08,9.50
2016,04,07,04,09,9.40
2016,04,07,04,10,9.40
2016,04,07,04,11,9.40
2016,04,07,04,12,9.40
2016,04,07,04,13,9.30
2016,04,07,04,14,9.30
2016,04,07,04,15,9.20
2016,04,07,04,16,9.10
2016,04,07,04,17,9.10
2016,04,07,04,18,9.00
2016,04,07,04,19,9.00
2016,04,07,04,20,8.90
2016,04,07,04,21,8.90
2016,04,07,04,22,8.90
2016,04,07,04,23,8.90
2016,04,07,04,24,9.00
2016,04,07,04,25,9.00
2016,04,07,04,26,9.10
2016,04,07,04,27,9.20
2016,04,07,04,28,9.20
2016,04,07,04,29,9.30
2016,04,07,04,30,9.30
2016,04,07,04,31,9.30
2016,04,07,04,32,9.40
2016,04,07,04,33,9.40
2016,04,07,04,34,9.50
2016,04,07,04,35,9.50
2016,04,07,04,36,9.60
2016,04,07,04,37,9.60
2016,04,07,04,38,9.60
2016,04,07,04,39,9.70
2016,04,07,04,40,9.70
2016,04,07,04,41,9.70
2016,04,07,04,42,9.70
2016,04,07,04,43,9.60
2016,04,07,04,44,9.60
2016,04,07,04,45,9.60
2016,04,07,04,46,9.60
2016,04,07,04,47,9.60
2016,04,07,04,48,9.60
2016,04,07,04,49,9.70
2016,04,07,04,50,9.80
2016,04,07,04,51,9.80
2016,04,07,04,52,10.00
2016,04,07,04,53,10.10
2016,04,07,04,54,10.30
2016,04,07,04,55,10.40
2016,04,07,04,56,10.40
2016,04,07,04,57,10.50
2016,04,07,04,58,10.50
2016,04,07,04,59,10.40
2016,04,07,05,00,10.40
2016,04,07,05,01,10.40
2016,04,07,05,02,10.30
2016,04,07,05,03,10.30
2016,04,07,05,04,10.30
2016,04,07,05,05,10.20
2016,04,07,05,06,10.20
2016,04,07,05,07,10.10
2016,04,07,05,08,10.10
2016,04,07,05,09,10.10
2016,04,07,05,10,10.10
2016,04,07,05,11,10.10
2016,04,07,05,12,10.20
2016,04,07,05,13,10.20
2016,04,07,05,14,10.30
2016,04,07,05,15,10.40
2016,04,07,05,16,10.40
2016,04,07,05,17,10.50
2016,04,07,05,18,10.50
2016,04,07,05,19,10.50
2016,04,07,05,20,10.50
2016,04,07,05,21,10.50
2016,04,07,05,22,10.60
2016,04,07,05,23,10.60
2016,04,07,05,24,10.60
2016,04,07,05,25,10.60
2016,04,07,05,26,10.60
2016,04,07,05,27,10.60
2016,04,07,05,28,10.60
2016,04,07,05,29,10.60
2016,04,07,05,30,10.60
2016,04,07,05,31,10.50
2016,04,07,05,32,10.50
2016,04,07,05,33,10.60
2016,04,07,05,34,10.60
2016,04,07,05,35,10.50
2016,04,07,05,36,10.50
2016,04,07,05,37,10.40
2016,04,07,05,38,10.40
2016,04,07,05,39,10.40
2016,04,07,05,40,10.40
2016,04,07,05,41,10.30
2016,04,07,05,42,10.30
2016,04,07,05,43,10.30
2016,04,07,05,44,10.20
2016,04,07,05,45,10.20
2016,04,07,05,46,10.30
2016,04,07,05,47,10.40
2016,04,07,05,48,10.40
2016,04,07,05,49,10.50
2016,04,07,05,50,10.50
2016,04,07,05,51,10.50
2016,04,07,05,52,10.50
2016,04,07,05,53,10.60
2016,04,07,05,54,10.70
2016,04,07,05,55,10.80
2016,04,07,05,56,10.90
2016,04,07,05,57,11.00
2016,04,07,05,58,11.00
2016,04,07,05,59,11.00
2016,04,07,06,00,10.90
2016,04,07,06,01,10.80
2016,04,07,06,02,10.70
2016,04,07,06,03,10.60
2016,04,07,06,04,10.60
2016,04,07,06,05,10.60
2016,04,07,06,06,10.60
2016,04,07,06,07,10.60
2016,04,07,06,08,10.60
2016,04,07,06,09,10.60
2016,04,07,06,10,10.60
2016,04,07,06,11,10.50
2016,04,07,06,12,10.50
2016,04,07,06,13,10.40
2016,04,07,06,14,10.40
2016,04,07,06,15,10.30
2016,04,07,06,16,10.20
2016,04,07,06,17,10.10
2016,04,07,06,18,10.00
2016,04,07,06,19,10.00
2016,04,07,06,20,10.00
2016,04,07,06,21,10.00
2016,04,07,06,22,10.00
2016,04,07,06,23,10.00
2016,04,07,06,24,9.90
2016,04,07,06,25,10.00
2016,04,07,06,26,10.10
2016,04,07,06,27,10.10
2016,04,07,06,28,10.20
2016,04,07,06,29,10.30
2016,04,07,06,30,10.40
2016,04,07,06,31,10.40
2016,04,07,06,32,10.40
2016,04,07,06,33,10.40
2016,04,07,06,34,10.40
2016,04,07,06,35,10.30
2016,04,07,06,36,10.20
2016,04,07,06,37,10.10
2016,04,07,06,38,10.00
2016,04,07,06,39,9.90
2016,04,07,06,40,9.80
2016,04,07,06,41,9.70
2016,04,07,06,42,9.70
2016,04,07,06,43,9.70
2016,04,07,06,44,9.70
2016,04,07,06,45,9.70
2016,04,07,06,46,9.60
2016,04,07,06,47,9.60
2016,04,07,06,48,9.60
2016,04,07,06,49,9.60
2016,04,07,06,50,9.50
2016,04,07,06,51,9.50
2016,04,07,06,52,9.40
2016,04,07,06,53,9.30
2016,04,07,06,54,9.20
2016,04,07,06,55,9.10
2016,04,07,06,56,9.10
2016,04,07,06,57,9.10
2016,04,07,06,58,9.10
2016,04,07,06,59,9.20
2016,04,07,07,00,9.10
2016,04,07,07,01,9.10
2016,04,07,07,02,9.10
2016,04,07,07,03,9.10
2016,04,07,07,04,9.10
2016,04,07,07,05,9.20
2016,04,07,07,06,9.20
2016,04,07,07,07,9.20
2016,04,07,07,08,9.20
2016,04,07,07,09,9.20
2016,04,07,07,10,9.20
2016,04,07,07,11,9.20
2016,04,07,07,12,9.20
2016,04,07,07,13,9.20
2016,04,07,07,14,9.20
2016,04,07,07,15,9.20
2016,04,07,07,16,9.10
2016,04,07,07,17,9.10
2016,04,07,07,18,9.10
2016,04,07,07,19,9.10
2016,04,07,07,20,9.00
2016,04,07,07,21,9.00
2016,04,07,07,22,9.00
2016,04,07,07,23,9.00
2016,04,07,07,24,9.10
2016,04,07,07,25,9.20
2016,04,07,07,26,9.20
2016,04,07,07,27,9.30
2016,04,07,07,28,9.30
2016,04,07,07,29,9.30
2016,04,07,07,30,9.30
2016,04,07,07,31,9.30
2016,04,07,07,32,9.20
2016,04,07,07,33,9.20
2016,04,07,07,34,9.20
2016,04,07,07,35,9.10
2016,04,07,07,36,9.10
2016,04,07,07,37,9.10
2016,04,07,07,38,9.10
2016,04,07,07,39,9.10
2016,04,07,07,40,9.00
2016,04,07,07,41,9.00
2016,04,07,07,42,9.00
2016,04,07,07,43,9.00
2016,04,07,07,44,9.00
2016,04,07,07,45,9.00
2016,04,07,07,46,9.00
2016,04,07,07,47,9.10
2016,04,07,07,48,9.10
2016,04,07,07,49,9.10
2016,04,07,07,50,9.10
2016,04,07,07,51,9.10
2016,04,07,07,52,9.20
2016,04,07,07,53,9.20
2016,04,07,07,54,9.20
2016,04,07,07,55,9.30
2016,04,07,07,56,9.30
2016,04,07,07,57,9.30
2016,04,07,07,58,9.40
2016,04,07,07,59,9.40
2016,04,07,08,00,9.50
2016,04,07,08,01,9.60
2016,04,07,08,02,9.60
2016,04,07,08,03,9.60
2016,04,07,08,04,9.60
2016,04,07,08,05,9.70
2016,04,07,08,06,9.70
2016,04,07,08,07,9.80
2016,04,07,08,08,9.80
2016,04,07,08,09,9.80
2016,04,07,08,10,9.90
2016,04,07,08,11,10.00
2016,04,07,08,12,10.10
2016,04,07,08,13,10.10
2016,04,07,08,14,10.20
2016,04,07,08,15,10.20
2016,04,07,08,16,10.30
2016,04,07,08,17,10.30
2016,04,07,08,18,10.30
2016,04,07,08,19,10.30
2016,04,07,08,20,10.40
2016,04,07,08,21,10.40
2016,04,07,08,22,10.40
2016,04,07,08,23,10.50
2016,04,07,08,24,10.60
2016,04,07,08,25,10.70
2016,04,07,08,26,10.80
2016,04,07,08,27,10.90
2016,04,07,08,28,10.90
2016,04,07,08,29,11.00
2016,04,07,08,30,11.10
2016,04,07,08,31,11.10
2016,04,07,08,32,11.20
2016,04,07,08,33,11.20
2016,04,07,08,34,11.30
2016,04,07,08,35,11.40
2016,04,07,08,36,11.50
2016,04,07,08,37,11.50
2016,04,07,08,38,11.60
2016,04,07,08,39,11.70
2016,04,07,08,40,11.80
2016,04,07,08,41,11.80
2016,04,07,08,42,11.80
2016,04,07,08,43,11.80
2016,04,07,08,44,11.80
2016,04,07,08,45,11.90
2016,04,07,08,46,11.90
2016,04,07,08,47,12.00
2016,04,07,08,48,12.10
2016,04,07,08,49,12.20
2016,04,07,08,50,12.30
2016,04,07,08,51,12.40
2016,04,07,08,52,12.40
2016,04,07,08,53,12.50
2016,04,07,08,54,12.50
2016,04,07,08,55,12.60
2016,04,07,08,56,12.70
2016,04,07,08,57,12.80
2016,04,07,08,58,12.70
2016,04,07,08,59,12.70
2016,04,07,09,00,12.70
2016,04,07,09,01,12.70
2016,04,07,09,02,12.80
2016,04,07,09,03,12.90
2016,04,07,09,04,13.00
2016,04,07,09,05,13.00
2016,04,07,09,06,13.10
2016,04,07,09,07,13.20
2016,04,07,09,08,13.30
2016,04,07,09,09,13.40
2016,04,07,09,10,13.50
2016,04,07,09,11,13.60
2016,04,07,09,12,13.70
2016,04,07,09,13,13.80
2016,04,07,09,14,13.80
2016,04,07,09,15,13.90
2016,04,07,09,16,13.90
2016,04,07,09,17,14.00
2016,04,07,09,18,14.00
2016,04,07,09,19,14.10
2016,04,07,09,20,14.10
2016,04,07,09,21,14.20
2016,04,07,09,22,14.20
2016,04,07,09,23,14.30
2016,04,07,09,24,14.40
2016,04,07,09,25,14.50
2016,04,07,09,26,14.70
2016,04,07,09,27,14.90
2016,04,07,09,28,15.10
2016,04,07,09,29,15.30
2016,04,07,09,30,15.50
2016,04,07,09,31,15.60
2016,04,07,09,32,15.60
2016,04,07,09,33,15.70
2016,04,07,09,34,15.80
2016,04,07,09,35,15.90
2016,04,07,09,36,16.00
2016,04,07,09,37,16.10
2016,04,07,09,38,16.20
2016,04,07,09,39,16.30
2016,04,07,09,40,16.30
2016,04,07,09,41,16.40
2016,04,07,09,42,16.50
2016,04,07,09,43,16.60
2016,04,07,09,44,16.70
2016,04,07,09,45,16.70
2016,04,07,09,46,16.80
2016,04,07,09,47,16.90
2016,04,07,09,48,16.90
2016,04,07,09,49,17.00
2016,04,07,09,50,17.10
2016,04,07,09,51,17.10
2016,04,07,09,52,17.20
2016,04,07,09,53,17.30
2016,04,07,09,54,17.30
2016,04,07,09,55,17.30
2016,04,07,09,56,17.40
2016,04,07,09,57,17.30
2016,04,07,09,58,17.30
2016,04,07,09,59,17.20
2016,04,07,10,00,17.20
2016,04,07,10,01,17.20
2016,04,07,10,02,17.30
2016,04,07,10,03,17.30
2016,04,07,10,04,17.30
2016,04,07,10,05,17.30
2016,04,07,10,06,17.30
2016,04,07,10,07,17.30
2016,04,07,10,08,17.30
2016,04,07,10,09,17.40
2016,04,07,10,10,17.50
2016,04,07,10,11,17.60
2016,04,07,10,12,17.70
2016,04,07,10,13,17.80
2016,04,07,10,14,17.90
2016,04,07,10,15,18.00
2016,04,07,10,16,18.10
2016,04,07,10,17,18.10
2016,04,07,10,18,18.20
2016,04,07,10,19,18.20
2016,04,07,10,20,18.20
2016,04,07,10,21,18.10
2016,04,07,10,22,18.10
2016,04,07,10,23,18.10
2016,04,07,10,24,18.20
2016,04,07,10,25,18.20
2016,04,07,10,26,18.10
2016,04,07,10,27,17.90
2016,04,07,10,28,17.60
2016,04,07,10,29,17.50
2016,04,07,10,30,17.40
2016,04,07,10,31,17.40
2016,04,07,10,32,17.20
2016,04,07,10,33,17.10
2016,04,07,10,34,16.90
2016,04,07,10,35,16.80
2016,04,07,10,36,16.80
2016,04,07,10,37,16.70
2016,04,07,10,38,16.70
2016,04,07,10,39,16.70
2016,04,07,10,40,16.70
2016,04,07,10,41,16.80
2016,04,07,10,42,16.90
2016,04,07,10,43,16.90
2016,04,07,10,44,17.00
2016,04,07,10,45,17.00
2016,04,07,10,46,17.10
2016,04,07,10,47,17.20
2016,04,07,10,48,17.20
2016,04,07,10,49,17.20
2016,04,07,10,50,17.20
2016,04,07,10,51,17.20
2016,04,07,10,52,17.30
2016,04,07,10,53,17.30
2016,04,07,10,54,17.40
2016,04,07,10,55,17.40
2016,04,07,10,56,17.50
2016,04,07,10,57,17.60
2016,04,07,10,58,17.70
2016,04,07,10,59,17.70
2016,04,07,11,00,17.80
2016,04,07,11,01,17.80
2016,04,07,11,02,17.80
2016,04,07,11,03,17.80
2016,04,07,11,04,17.80
2016,04,07,11,05,17.80
2016,04,07,11,06,17.80
2016,04,07,11,07,17.80
2016,04,07,11,08,17.80
2016,04,07,11,09,17.90
2016,04,07,11,10,17.90
2016,04,07,11,11,17.90
2016,04,07,11,12,18.00
2016,04,07,11,13,18.00
2016,04,07,11,14,17.90
2016,04,07,11,15,17.90
2016,04,07,11,16,17.90
2016,04,07,11,17,17.90
2016,04,07,11,18,18.00
2016,04,07,11,19,18.00
2016,04,07,11,20,18.10
2016,04,07,11,21,18.10
2016,04,07,11,22,18.20
2016,04,07,11,23,18.30
2016,04,07,11,24,18.30
2016,04,07,11,25,18.30
2016,04,07,11,26,18.30
2016,04,07,11,27,18.40
2016,04,07,11,28,18.40
2016,04,07,11,29,18.40
2016,04,07,11,30,18.40
2016,04,07,11,31,18.40
2016,04,07,11,32,18.40
2016,04,07,11,33,18.40
2016,04,07,11,34,18.30
2016,04,07,11,35,18.20
2016,04,07,11,36,18.10
2016,04,07,11,37,18.10
2016,04,07,11,38,18.00
2016,04,07,11,39,18.00
2016,04,07,11,40,18.10
2016,04,07,11,41,18.20
2016,04,07,11,42,18.20
2016,04,07,11,43,18.30
2016,04,07,11,44,18.40
2016,04,07,11,45,18.50
2016,04,07,11,46,18.50
2016,04,07,11,47,18.60
2016,04,07,11,48,18.60
2016,04,07,11,49,18.60
2016,04,07,11,50,18.50
2016,04,07,11,51,18.40
2016,04,07,11,52,18.30
2016,04,07,11,53,18.20
2016,04,07,11,54,18.10
2016,04,07,11,55,17.90
2016,04,07,11,56,17.80
2016,04,07,11,57,17.80
2016,04,07,11,58,17.70
2016,04,07,11,59,17.70
2016,04,07,12,00,17.60
2016,04,07,12,01,17.60
2016,04,07,12,02,17.70
2016,04,07,12,03,17.80
2016,04,07,12,04,17.90
2016,04,07,12,05,17.90
2016,04,07,12,06,18.00
2016,04,07,12,07,18.10
2016,04,07,12,08,18.10
2016,04,07,12,09,18.10
2016,04,07,12,10,18.20
2016,04,07,12,11,18.20
2016,04,07,12,12,18.10
2016,04,07,12,13,18.10
2016,04,07,12,14,18.10
2016,04,07,12,15,18.00
2016,04,07,12,16,18.00
2016,04,07,12,17,17.90
2016,04,07,12,18,17.90
2016,04,07,12,19,18.00
2016,04,07,12,20,18.00
2016,04,07,12,21,18.10
2016,04,07,12,22,18.10
2016,04,07,12,23,18.10
2016,04,07,12,24,18.00
2016,04,07,12,25,17.90
2016,04,07,12,26,17.90
2016,04,07,12,27,17.80
2016,04,07,12,28,17.80
2016,04,07,12,29,17.80
2016,04,07,12,30,17.80
2016,04,07,12,31,17.80
2016,04,07,12,32,17.80
2016,04,07,12,33,17.80
2016,04,07,12,34,17.80
2016,04,07,12,35,17.80
2016,04,07,12,36,17.90
2016,04,07,12,37,17.90
2016,04,07,12,38,17.90
2016,04,07,12,39,17.90
2016,04,07,12,40,18.00
2016,04,07,12,41,18.00
2016,04,07,12,42,18.10
2016,04,07,12,43,18.10
2016,04,07,12,44,18.10
2016,04,07,12,45,18.20
2016,04,07,12,46,18.20
2016,04,07,12,47,18.20
2016,04,07,12,48,18.30
2016,04,07,12,49,18.30
2016,04,07,12,50,18.30
2016,04,07,12,51,18.30
2016,04,07,12,52,18.30
2016,04,07,12,53,18.40
2016,04,07,12,54,18.50
2016,04,07,12,55,18.50
2016,04,07,12,56,18.50
2016,04,07,12,57,18.50
2016,04,07,12,58,18.50
2016,04,07,12,59,18.60
2016,04,07,13,00,18.70
2016,04,07,13,01,18.80
2016,04,07,13,02,18.90
2016,04,07,13,03,18.80
2016,04,07,13,04,18.80
2016,04,07,13,05,18.80
2016,04,07,13,06,18.80
2016,04,07,13,07,18.70
2016,04,07,13,08,18.60
2016,04,07,13,09,18.60
2016,04,07,13,10,18.60
2016,04,07,13,11,18.60
2016,04,07,13,12,18.50
2016,04,07,13,13,18.50
2016,04,07,13,14,18.40
2016,04,07,13,15,18.20
2016,04,07,13,16,18.00
2016,04,07,13,17,17.90
2016,04,07,13,18,17.80
2016,04,07,13,19,17.80
2016,04,07,13,20,17.60
2016,04,07,13,21,17.60
2016,04,07,13,22,17.50
2016,04,07,13,23,17.50
2016,04,07,13,24,17.50
2016,04,07,13,25,17.40
2016,04,07,13,26,17.40
2016,04,07,13,27,17.40
2016,04,07,13,28,17.50
2016,04,07,13,29,17.60
2016,04,07,13,30,17.60
2016,04,07,13,31,17.70
2016,04,07,13,32,17.70
2016,04,07,13,33,17.80
2016,04,07,13,34,17.80
2016,04,07,13,35,17.80
2016,04,07,13,36,17.70
2016,04,07,13,37,17.60
2016,04,07,13,38,17.50
2016,04,07,13,39,17.50
2016,04,07,13,40,17.50
2016,04,07,13,41,17.40
2016,04,07,13,42,17.40
2016,04,07,13,43,17.30
2016,04,07,13,44,17.30
2016,04,07,13,45,17.20
2016,04,07,13,46,17.20
2016,04,07,13,47,17.30
2016,04,07,13,48,17.30
2016,04,07,13,49,17.40
2016,04,07,13,50,17.40
2016,04,07,13,51,17.40
2016,04,07,13,52,17.30
2016,04,07,13,53,17.30
2016,04,07,13,54,17.20
2016,04,07,13,55,17.10
2016,04,07,13,56,17.10
2016,04,07,13,57,17.00
2016,04,07,13,58,17.00
2016,04,07,13,59,17.10
2016,04,07,14,00,17.00
2016,04,07,14,01,17.00
2016,04,07,14,02,17.00
2016,04,07,14,03,17.00
2016,04,07,14,04,17.00
2016,04,07,14,05,17.00
2016,04,07,14,06,17.10
2016,04,07,14,07,17.10
2016,04,07,14,08,17.30
2016,04,07,14,09,17.40
2016,04,07,14,10,17.50
2016,04,07,14,11,17.60
2016,04,07,14,12,17.80
2016,04,07,14,13,17.90
2016,04,07,14,14,18.00
2016,04,07,14,15,18.20
2016,04,07,14,16,18.20
2016,04,07,14,17,18.20
2016,04,07,14,18,18.20
2016,04,07,14,19,18.20
2016,04,07,14,20,18.20
2016,04,07,14,21,18.20
2016,04,07,14,22,18.30
2016,04,07,14,23,18.30
2016,04,07,14,24,18.30
2016,04,07,14,25,18.40
2016,04,07,14,26,18.40
2016,04,07,14,27,18.40
2016,04,07,14,28,18.40
2016,04,07,14,29,18.50
2016,04,07,14,30,18.60
2016,04,07,14,31,18.60
2016,04,07,14,32,18.60
2016,04,07,14,33,18.70
2016,04,07,14,34,18.70
2016,04,07,14,35,18.70
2016,04,07,14,36,18.70
2016,04,07,14,37,18.80
2016,04,07,14,38,18.80
2016,04,07,14,39,18.70
2016,04,07,14,40,18.70
2016,04,07,14,41,18.70
2016,04,07,14,42,18.70
2016,04,07,14,43,18.80
2016,04,07,14,44,18.80
2016,04,07,14,45,18.80
2016,04,07,14,46,18.90
2016,04,07,14,47,18.90
2016,04,07,14,48,18.90
2016,04,07,14,49,18.80
2016,04,07,14,50,18.80
2016,04,07,14,51,18.80
2016,04,07,14,52,18.80
2016,04,07,14,53,18.90
2016,04,07,14,54,19.00
2016,04,07,14,55,19.00
2016,04,07,14,56,18.90
2016,04,07,14,57,18.90
2016,04,07,14,58,18.80
2016,04,07,14,59,18.70
2016,04,07,15,00,18.60
2016,04,07,15,01,18.60
2016,04,07,15,02,18.50
2016,04,07,15,03,18.50
2016,04,07,15,04,18.50
2016,04,07,15,05,18.60
2016,04,07,15,06,18.60
2016,04,07,15,07,18.70
2016,04,07,15,08,18.70
2016,04,07,15,09,18.80
2016,04,07,15,10,18.90
2016,04,07,15,11,19.00
2016,04,07,15,12,19.10
2016,04,07,15,13,19.20
2016,04,07,15,14,19.30
2016,04,07,15,15,19.30
2016,04,07,15,16,19.30
2016,04,07,15,17,19.30
2016,04,07,15,18,19.30
2016,04,07,15,19,19.40
2016,04,07,15,20,19.40
2016,04,07,15,21,19.50
2016,04,07,15,22,19.50
2016,04,07,15,23,19.60
2016,04,07,15,24,19.60
2016,04,07,15,25,19.70
2016,04,07,15,26,19.80
2016,04,07,15,27,19.90
2016,04,07,15,28,20.00
2016,04,07,15,29,20.10
2016,04,07,15,30,20.00
2016,04,07,15,31,19.90
2016,04,07,15,32,19.80
2016,04,07,15,33,19.60
2016,04,07,15,34,19.50
2016,04,07,15,35,19.40
2016,04,07,15,36,19.30
2016,04,07,15,37,19.30
2016,04,07,15,38,19.20
2016,04,07,15,39,19.20
2016,04,07,15,40,19.10
2016,04,07,15,41,19.10
2016,04,07,15,42,19.00
2016,04,07,15,43,18.90
2016,04,07,15,44,18.90
2016,04,07,15,45,18.90
2016,04,07,15,46,19.00
2016,04,07,15,47,19.00
2016,04,07,15,48,19.10
2016,04,07,15,49,19.20
2016,04,07,15,50,19.30
2016,04,07,15,51,19.40
2016,04,07,15,52,19.40
2016,04,07,15,53,19.40
2016,04,07,15,54,19.50
2016,04,07,15,55,19.50
2016,04,07,15,56,19.50
2016,04,07,15,57,19.50
2016,04,07,15,58,19.50
2016,04,07,15,59,19.50
2016,04,07,16,00,19.40
2016,04,07,16,01,19.30
2016,04,07,16,02,19.20
2016,04,07,16,03,19.20
2016,04,07,16,04,19.10
2016,04,07,16,05,18.90
2016,04,07,16,06,18.80
2016,04,07,16,07,18.60
2016,04,07,16,08,18.40
2016,04,07,16,09,18.20
2016,04,07,16,10,18.10
2016,04,07,16,11,18.00
2016,04,07,16,12,17.90
2016,04,07,16,13,17.90
2016,04,07,16,14,17.90
2016,04,07,16,15,17.90
2016,04,07,16,16,17.80
2016,04,07,16,17,17.80
2016,04,07,16,18,17.80
2016,04,07,16,19,17.70
2016,04,07,16,20,17.70
2016,04,07,16,21,17.70
2016,04,07,16,22,17.70
2016,04,07,16,23,17.70
2016,04,07,16,24,17.70
2016,04,07,16,25,17.70
2016,04,07,16,26,17.80
2016,04,07,16,27,17.80
2016,04,07,16,28,17.80
2016,04,07,16,29,17.80
2016,04,07,16,30,17.90
2016,04,07,16,31,18.00
2016,04,07,16,32,18.00
2016,04,07,16,33,18.10
2016,04,07,16,34,18.20
2016,04,07,16,35,18.30
2016,04,07,16,36,18.30
2016,04,07,16,37,18.40
2016,04,07,16,38,18.50
2016,04,07,16,39,18.50
2016,04,07,16,40,18.40
2016,04,07,16,41,18.40
2016,04,07,16,42,18.40
2016,04,07,16,43,18.30
2016,04,07,16,44,18.30
2016,04,07,16,45,18.20
2016,04,07,16,46,18.20
2016,04,07,16,47,18.20
2016,04,07,16,48,18.20
2016,04,07,16,49,18.20
2016,04,07,16,50,18.20
2016,04,07,16,51,18.20
2016,04,07,16,52,18.20
2016,04,07,16,53,18.10
2016,04,07,16,54,18.00
2016,04,07,16,55,18.00
2016,04,07,16,56,17.90
2016,04,07,16,57,17.90
2016,04,07,16,58,17.80
2016,04,07,16,59,17.80
2016,04,07,17,00,17.80
2016,04,07,17,01,17.80
2016,04,07,17,02,17.80
2016,04,07,17,03,17.80
2016,04,07,17,04,17.70
2016,04,07,17,05,17.60
2016,04,07,17,06,17.60
2016,04,07,17,07,17.50
2016,04,07,17,08,17.50
2016,04,07,17,09,17.40
2016,04,07,17,10,17.30
2016,04,07,17,11,17.30
2016,04,07,17,12,17.30
2016,04,07,17,13,17.30
2016,04,07,17,14,17.30
2016,04,07,17,15,17.30
2016,04,07,17,16,17.20
2016,04,07,17,17,17.20
2016,04,07,17,18,17.20
2016,04,07,17,19,17.20
2016,04,07,17,20,17.20
2016,04,07,17,21,17.30
2016,04,07,17,22,17.30
2016,04,07,17,23,17.30
2016,04,07,17,24,17.30
2016,04,07,17,25,17.30
2016,04,07,17,26,17.20
2016,04,07,17,27,17.20
2016,04,07,17,28,17.20
2016,04,07,17,29,17.10
2016,04,07,17,30,17.10
2016,04,07,17,31,17.10
2016,04,07,17,32,17.10
2016,04,07,17,33,17.10
2016,04,07,17,34,17.20
2016,04,07,17,35,17.20
2016,04,07,17,36,17.30